TimeMDT,TemperatureF,Dew PointF,Humidity,Sea Level PressureIn,VisibilityMPH,Wind Direction,Wind SpeedMPH,Gust SpeedMPH,PrecipitationIn,Events,Conditions,WindDirDegrees,DateUTC
12:53 AM,41.0,33.1,73,29.82,10.0,NE,3.5,-,N/A,,Overcast,50,2013-10-09 06:53:00
1:53 AM,41.0,30.9,67,29.83,10.0,NNW,4.6,-,N/A,,Scattered Clouds,330,2013-10-09 07:53:00
2:53 AM,42.1,30.0,62,29.83,10.0,North,4.6,-,N/A,,Overcast,350,2013-10-09 08:53:00
3:53 AM,42.1,30.9,65,29.85,10.0,North,5.8,-,N/A,,Overcast,360,2013-10-09 09:53:00
4:53 AM,42.1,28.9,60,29.88,10.0,NE,10.4,-,N/A,,Overcast,40,2013-10-09 10:53:00
5:53 AM,43.0,28.9,58,29.92,10.0,NNE,11.5,18.4,N/A,,Partly Cloudy,20,2013-10-09 11:53:00
6:53 AM,41.0,30.0,65,29.95,10.0,NNE,8.1,-,N/A,,Clear,30,2013-10-09 12:53:00
7:53 AM,41.0,30.9,67,29.99,10.0,NNE,9.2,-,N/A,,Clear,30,2013-10-09 13:53:00
8:53 AM,43.0,28.9,58,30.01,10.0,NE,12.7,-,N/A,,Scattered Clouds,40,2013-10-09 14:53:00
9:53 AM,44.1,26.1,49,30.02,10.0,ENE,15.0,24.2,N/A,,Clear,60,2013-10-09 15:53:00
10:53 AM,44.1,26.1,49,30.04,10.0,NE,15.0,24.2,N/A,,Clear,50,2013-10-09 16:53:00
11:53 AM,46.0,26.1,46,30.02,10.0,NE,17.3,24.2,N/A,,Clear,50,2013-10-09 17:53:00
12:53 PM,46.9,26.1,44,30.00,10.0,NE,15.0,24.2,N/A,,Clear,50,2013-10-09 18:53:00
1:53 PM,46.9,26.1,44,29.98,10.0,ENE,13.8,21.9,N/A,,Partly Cloudy,60,2013-10-09 19:53:00
5:53 PM,44.1,28.0,53,30.00,10.0,NE,11.5,-,N/A,,Partly Cloudy,50,2013-10-09 23:53:00
6:53 PM,42.1,27.0,55,30.01,10.0,NE,9.2,-,N/A,,Clear,40,2013-10-10 00:53:00
7:53 PM,41.0,27.0,57,30.01,10.0,NE,6.9,-,N/A,,Clear,40,2013-10-10 01:53:00
8:53 PM,39.0,28.0,65,30.01,10.0,NE,4.6,-,N/A,,Clear,50,2013-10-10 02:53:00
9:53 PM,37.9,28.9,70,30.01,10.0,ENE,3.5,-,N/A,,Clear,60,2013-10-10 03:53:00
10:15 PM,37.4,28.4,70,30.02,10.0,ENE,3.5,-,N/A,,Mostly Cloudy,60,2013-10-10 04:15:00
10:53 PM,36.0,30.0,79,30.00,10.0,NNW,3.5,-,N/A,,Scattered Clouds,330,2013-10-10 04:53:00
11:53 PM,36.0,28.9,76,29.98,10.0,NW,3.5,-,N/A,,Clear,320,2013-10-10 05:53:00